Topeka Forbes, KS

3:35 PM CDT on May 28, 2017 (GMT -0500)
Forbes

Weather History for KFOE - January, 2013

Change the Weather History Date:

Wednesday, January 30, 2013

  Actual Average Record
Temperature  
Mean Temperature 26 °F -  
Max Temperature 33 °F 40 °F 69 °F (2012)
Min Temperature 15 °F 18 °F -6 °F (1966)
Degree Days  
Heating Degree Days 40    
Moisture  
Dew Point 22 °F    
Average Humidity 83    
Maximum Humidity 100    
Minimum Humidity 63    
Precipitation  
Precipitation 0.03 in - - ()
Sea Level Pressure  
Sea Level Pressure 29.77 in    
Wind  
Wind Speed 17 mph (NW)    
Max Wind Speed 28 mph    
Max Gust Speed 40 mph    
Visibility 6 miles    
Events Snow    
Averages and records for this station are not official NWS values.
T = Trace of Precipitation, MM = Missing Value Source: NWS Daily Summary

Daily Weather History Graph

Daily Weather History Graph

Search for Another Location

Airport or City:

Trip Planner

Search our weather history database for the weather conditions in past years. The results will help you decide how hot, cold, wet, or windy it might be!

Date:

Astronomy

Jan. 30, 2013 Rise Set
Actual Time 7:30 AM CST 5:42 PM CST
Civil Twilight 7:02 AM CST 6:10 PM CST
Nautical Twilight 6:30 AM CST 6:42 PM CST
Astronomical Twilight 5:58 AM CST 7:13 PM CST
Moon 9:38 PM CST (1/30) 9:01 AM CST (1/30)
Length of Visible Light 11h 08m
Length of Day
10h 11m
Waning Gibbous, 87% of the Moon is Illuminated
Jan 30
Waning Gibbous
Feb 3
Last Quarter
Feb 10
New
Feb 17
First Quarter
Feb 25
Full

Hourly Weather History & Observations

Time (CST) Temp. Windchill Dew Point Humidity Pressure Visibility Wind Dir Wind Speed Gust Speed Precip Events Conditions
12:35 AM 33.8 °F 27.0 °F 32.0 °F 93% 29.55 in 1.8 mi North 8.1 mph - 0.00 in Snow Light Snow
12:53 AM 33.1 °F 26.1 °F 32.0 °F 96% 29.58 in 1.2 mi WNW 8.1 mph - 0.01 in Snow Light Snow
1:04 AM 33.8 °F 24.8 °F 32.0 °F 93% 29.57 in 1.0 mi NW 12.7 mph - 0.01 in Snow Light Snow
1:23 AM 32.0 °F 21.2 °F 32.0 °F 100% 29.56 in 0.8 mi NW 16.1 mph - 0.02 in Snow Light Snow
1:40 AM 32.0 °F 20.8 °F 30.2 °F 93% 29.55 in 1.2 mi NNW 17.3 mph - 0.02 in Snow Light Snow
1:48 AM 32.0 °F 20.5 °F 30.2 °F 93% 29.55 in 2.5 mi NNW 18.4 mph - 0.02 in Snow Light Snow
1:53 AM 32.0 °F 21.6 °F 30.9 °F 96% 29.57 in 4.0 mi NNW 15.0 mph - 0.02 in Snow Light Snow
2:53 AM 32.0 °F 23.6 °F 30.9 °F 96% 29.59 in 5.0 mi NNW 10.4 mph - 0.00 in Snow Light Snow
3:21 AM 32.0 °F 22.5 °F 30.2 °F 93% 29.57 in 7.0 mi North 12.7 mph 23.0 mph 0.00 in Snow Light Snow
3:53 AM 32.0 °F 21.6 °F 30.9 °F 96% 29.61 in 5.0 mi NNW 15.0 mph 23.0 mph 0.00 in Snow Light Snow
4:18 AM 32.0 °F 20.5 °F 28.4 °F 87% 29.60 in 3.0 mi NNW 18.4 mph 28.8 mph 0.00 in Snow Light Snow
4:25 AM 32.0 °F 20.5 °F 28.4 °F 87% 29.61 in 2.0 mi North 18.4 mph 34.5 mph 0.00 in Snow Light Snow
4:53 AM 30.9 °F 20.2 °F 28.0 °F 89% 29.65 in 2.5 mi North 15.0 mph 29.9 mph 0.00 in Snow Light Snow
5:05 AM 30.2 °F 17.4 °F 28.4 °F 93% 29.63 in 2.5 mi NW 20.7 mph 26.5 mph 0.00 in Snow Light Snow
5:24 AM 28.4 °F 14.1 °F 26.6 °F 93% 29.65 in 2.0 mi NNW 24.2 mph 31.1 mph 0.00 in Snow Light Snow
5:45 AM 28.4 °F 14.7 °F 26.6 °F 93% 29.66 in 3.0 mi NNW 21.9 mph 28.8 mph 0.00 in Snow Light Snow
5:53 AM 28.9 °F 16.5 °F 26.1 °F 89% 29.68 in 3.0 mi NNW 18.4 mph 28.8 mph 0.00 in Snow Light Snow
6:39 AM 26.6 °F 10.8 °F 23.0 °F 86% 29.70 in 6.0 mi NNW 27.6 mph 35.7 mph 0.00 in Snow Light Snow
6:53 AM 26.1 °F 10.4 °F 23.0 °F 88% 29.74 in 3.0 mi NW 26.5 mph 35.7 mph 0.00 in Snow Light Snow
7:17 AM 26.6 °F 11.7 °F 21.2 °F 80% 29.73 in 2.5 mi NW 24.2 mph 36.8 mph 0.00 in Snow Light Snow
7:27 AM 26.6 °F 11.7 °F 21.2 °F 80% 29.74 in 3.0 mi NW 24.2 mph 29.9 mph 0.00 in Snow Light Snow
7:38 AM 24.8 °F 9.3 °F 21.2 °F 86% 29.75 in 2.0 mi NW 24.2 mph 31.1 mph 0.00 in Snow Light Snow
7:41 AM 24.8 °F 8.7 °F 21.2 °F 86% 29.75 in 1.8 mi NW 26.5 mph 32.2 mph 0.00 in Snow Light Snow
7:47 AM 24.8 °F 8.4 °F 21.2 °F 86% 29.76 in 3.0 mi NW 27.6 mph 40.3 mph 0.00 in Snow Light Snow
7:53 AM 25.0 °F 9.5 °F 21.0 °F 85% 29.79 in 6.0 mi NW 24.2 mph 34.5 mph 0.00 in Snow Light Snow
8:29 AM 24.8 °F 9.3 °F 21.2 °F 86% 29.78 in 1.8 mi NW 24.2 mph 32.2 mph 0.00 in Snow Light Snow
8:53 AM 25.0 °F 10.2 °F 21.0 °F 85% 29.82 in 1.8 mi NW 21.9 mph 28.8 mph 0.00 in Snow Light Snow
9:10 AM 24.8 °F 9.0 °F 21.2 °F 86% 29.80 in 2.5 mi NW 25.3 mph 32.2 mph 0.00 in Snow Light Snow
9:37 AM 24.8 °F 9.3 °F 19.4 °F 80% 29.81 in 4.0 mi NW 24.2 mph 31.1 mph 0.00 in Snow Light Snow
9:53 AM 25.0 °F 9.2 °F 21.0 °F 85% 29.85 in 6.0 mi NW 25.3 mph 31.1 mph 0.00 in Snow Light Snow
10:53 AM 26.1 °F 10.1 °F 19.0 °F 75% 29.88 in 10.0 mi NNW 27.6 mph 33.4 mph 0.00 in   Overcast
11:53 AM 26.1 °F 11.0 °F 17.1 °F 69% 29.90 in 10.0 mi NW 24.2 mph 32.2 mph 0.00 in   Overcast
12:53 PM 26.1 °F 12.3 °F 19.0 °F 75% 29.89 in 9.0 mi WNW 19.6 mph 31.1 mph 0.00 in Snow Light Snow
1:43 PM 26.6 °F 10.8 °F 15.8 °F 64% 29.86 in 10.0 mi NW 27.6 mph 34.5 mph 0.00 in   Overcast
1:53 PM 26.1 °F 11.0 °F 17.1 °F 69% 29.89 in 10.0 mi NW 24.2 mph 33.4 mph 0.00 in   Overcast
2:08 PM 26.6 °F 11.7 °F 17.6 °F 69% 29.86 in 10.0 mi NW 24.2 mph 32.2 mph N/A   Overcast
2:53 PM 26.1 °F 11.0 °F 15.1 °F 63% 29.91 in 10.0 mi NW 24.2 mph - 0.00 in   Overcast
3:40 PM 24.8 °F 11.1 °F 15.8 °F 69% 29.89 in 10.0 mi NNW 18.4 mph 28.8 mph N/A   Overcast
3:53 PM 26.1 °F 13.1 °F 17.1 °F 69% 29.93 in 10.0 mi NW 17.3 mph - N/A   Overcast
4:53 PM 25.0 °F 11.7 °F 17.1 °F 72% 29.95 in 10.0 mi WNW 17.3 mph - N/A   Overcast
5:53 PM 25.0 °F 13.1 °F 16.0 °F 69% 29.97 in 10.0 mi NW 13.8 mph - N/A   Overcast
6:01 PM 24.8 °F 12.4 °F 15.8 °F 69% 29.94 in 10.0 mi NW 15.0 mph - N/A   Overcast
6:53 PM 24.1 °F 13.7 °F 16.0 °F 71% 29.99 in 10.0 mi NW 10.4 mph - N/A   Overcast
7:53 PM 24.1 °F 15.2 °F 16.0 °F 71% 29.99 in 10.0 mi WNW 8.1 mph - N/A   Overcast
8:53 PM 18.0 °F 9.8 °F 12.9 °F 81% 30.01 in 10.0 mi WSW 5.8 mph - N/A   Clear
9:53 PM 19.0 °F 9.0 °F 12.9 °F 77% 30.01 in 10.0 mi SW 8.1 mph - N/A   Clear
10:53 PM 18.0 °F 6.9 °F 12.9 °F 81% 30.00 in 10.0 mi SW 9.2 mph - N/A   Clear
11:53 PM 15.1 °F 5.2 °F 10.9 °F 84% 30.00 in 10.0 mi SSW 6.9 mph - N/A   Clear